Location: P�rn�nmaa
(61.1833°N, 23.0000°E)
Time: 17:41:43
(UTC+00:00)

Cosmos 1782 - Pass Details

Date: 08 December 2019
Orbit: 538 x 552 km, 82.5° (Epoch: 21 January)

Event Time Altitude Azimuth Distance (km) Brightness Sun altitude
Rises 15:53:56 0° 203° (SSW) 2,707 7.0 -16.8°
Reaches altitude 10° 15:56:07 10° 207° (SSW) 1,816 6.1 -17.0°
Maximum altitude 16:00:04 61° 289° (WNW) 626 3.3 -17.5°
Enters shadow 16:03:33 13° 9° (N) 1,627 5.0 -17.9°
